This demonstration page uses our WeatherBlox Daily Observations layout. Learn more.

Left ArrowRight Arrow

Hourly Observations for July 6, 2016

Temp ( °F °C ) Dew Point ( °F °C ) Humidity (%) Winds ( mph kmh ) Pressure ( in mb ) Visibility ( mi km ) Precip ( " mm )
12:53 am 00:53 Clear 67 19.4 64 17.8 91 91 N N/A 29.94 1014 9 14 N/A
1:53 am 01:53 Clear with Mist and Fog 66 18.9 64 17.8 93 93 N N/A 29.94 1014 6 10 N/A
2:53 am 02:53 Mostly Clear 66 18.9 64 17.8 93 93 N N/A 29.95 1014 8 13 N/A
3:53 am 03:53 Partly Cloudy with Mist and Fog 65 18.3 63 17.2 93 93 N N/A 29.95 1014 5 8 N/A
4:38 am 04:38 Mostly Cloudy with Mist and Fog 66 18.9 64 17.8 93 93 N N/A 29.94 1014 3 4 N/A
4:53 am 04:53 Mostly Cloudy with Mist and Fog 67 19.4 65 18.3 93 93 N N/A 29.94 1014 6 10 N/A
5:53 am 05:53 Clear with Mist and Fog 66 18.9 64 17.8 93 93 N N/A 29.93 1014 5 8 N/A
6:53 am 06:53 Sunny with Mist and Fog 66 18.9 64 17.8 93 93 N N/A 29.93 1014 6 10 N/A
7:53 am 07:53 Mostly Cloudy with Mist and Fog 73 22.8 69 20.6 87 87 E 3 6 29.92 1013 6 10 N/A
8:45 am 08:45 Mostly Cloudy 77 25 72 22.2 85 85 SSW 3 6 29.94 1014 8 13 N/A
8:53 am 08:53 Mostly Cloudy 76 24.4 72 22.2 88 88 SSW 3 6 29.93 1014 8 13 N/A
9:53 am 09:53 Cloudy with Haze 81 27.2 74 23.3 79 79 SSW 9 15 29.93 1014 5 8 N/A
10:50 am 10:50 Hazy 82 28 75 24 79 79 VRB 6 9 29.91 1013 6 10 N/A
10:53 am 10:53 Hazy 83 28.3 75 23.9 77 77 SSW 8 13 29.91 1013 6 10 N/A
11:34 am 11:34 Mostly Cloudy 83 28.3 74 23.3 74 74 WSW 15 24 29.91 1013 7 11 N/A
11:53 am 11:53 Partly Cloudy 85 29.4 75 23.9 72 72 SW 12 19 29.93 1014 8 13 N/A
12:53 pm 12:53 Mostly Cloudy with Thunderstorms 82 27.8 71 21.7 69 69 WNW 23 37 29.94 1014 9 14 N/A
1:03 pm 13:03 Cloudy with Strong Thunderstorms 74 23.3 69 20.6 85 85 W 8 13 29.97 1015 3 4 0.04 1.02
1:14 pm 13:14 Mostly Cloudy with Thunderstorms 74 23.3 70 21.1 88 88 WNW 8 13 29.97 1015 10 16 0.04 1.02
1:34 pm 13:34 Partly Cloudy with Nearby Thunderstorms 75 23.9 71 21.7 88 88 VRB 5 7 29.94 1014 10 16 0.04 1.02
1:50 pm 13:50 Mostly Sunny 75 24 72 22 89 89 S 5 7 29.91 1013 10 16 0.04 1.02
1:53 pm 13:53 Mostly Sunny 76 24.4 71 21.7 85 85 VRB 3 6 29.90 1013 10 16 0.04 1.02
2:53 pm 14:53 Sunny 79 26.1 71 21.7 77 77 VRB 5 7 29.84 1011 10 16 N/A
3:53 pm 15:53 Sunny 83 28.3 72 22.2 70 70 VRB 7 11 29.83 1010 10 16 N/A
4:53 pm 16:53 Sunny 84 28.9 70 21.1 63 63 W 10 17 29.86 1011 10 16 N/A
5:53 pm 17:53 Sunny 84 28.9 70 21.1 63 63 WSW 6 9 29.86 1011 10 16 N/A
6:53 pm 18:53 Sunny 84 28.9 71 21.7 65 65 SSW 7 11 29.86 1011 10 16 N/A
7:53 pm 19:53 Sunny 82 27.8 70 21.1 67 67 SW 5 7 29.87 1012 10 16 N/A
8:53 pm 20:53 Sunny 78 25.6 71 21.7 79 79 N N/A 29.85 1011 10 16 N/A
9:53 pm 21:53 Clear 74 23.3 70 21.1 88 88 N N/A 29.86 1011 10 16 N/A
10:53 pm 22:53 Clear 73 22.8 70 21.1 90 90 N N/A 29.87 1012 10 16 N/A
11:53 pm 23:53 Clear 73 22.8 70 21.1 90 90 N N/A 29.88 1012 10 16 N/A

Powered by AerisWeather